Time,TemperatureF,DewpointF,PressureIn,WindDirection,WindDirectionDegrees,WindSpeedMPH,WindSpeedGustMPH,Humidity,HourlyPrecipIn,Conditions,Clouds,dailyrainin,SoftwareType,DateUTC
2013-04-28 00:06:00,53.9,52.0,30.25,West,262,0.0,0.0,93,0.01,,,0.03,weatherlink.com 1.10,2013-04-28 04:06:00,
2013-04-28 00:21:00,53.9,52.0,30.25,West,262,0.0,0.0,94,0.00,,,0.03,weatherlink.com 1.10,2013-04-28 04:21:00,
2013-04-28 00:36:00,53.7,52.0,30.24,West,262,0.0,0.0,94,0.00,,,0.00,weatherlink.com 1.10,2013-04-28 04:36:00,
2013-04-28 00:51:00,53.7,52.0,30.24,West,262,0.0,0.0,94,0.00,,,0.00,weatherlink.com 1.10,2013-04-28 04:51:00,
2013-04-28 01:06:00,53.5,52.0,30.24,West,262,0.0,0.0,94,0.00,,,0.00,weatherlink.com 1.10,2013-04-28 05:06:00,
2013-04-28 01:21:00,53.6,52.0,30.24,West,262,0.0,0.0,94,0.00,,,0.00,weatherlink.com 1.10,2013-04-28 05:21:00,
2013-04-28 01:36:00,53.7,52.0,30.24,West,262,0.0,0.0,95,0.00,,,0.00,weatherlink.com 1.10,2013-04-28 05:36:00,
2013-04-28 01:51:00,53.7,52.0,30.23,West,262,0.0,1.0,95,0.00,,,0.00,weatherlink.com 1.10,2013-04-28 05:51:00,
2013-04-28 02:06:00,53.7,52.0,30.23,WSW,238,0.0,1.0,95,0.00,,,0.00,weatherlink.com 1.10,2013-04-28 06:06:00,
2013-04-28 02:21:00,53.8,52.0,30.23,WSW,238,0.0,0.0,95,0.00,,,0.00,weatherlink.com 1.10,2013-04-28 06:21:00,
2013-04-28 02:36:00,53.8,52.0,30.22,WSW,238,0.0,1.0,95,0.00,,,0.00,weatherlink.com 1.10,2013-04-28 06:36:00,
2013-04-28 02:51:00,53.8,52.0,30.21,WSW,238,0.0,0.0,95,0.01,,,0.01,weatherlink.com 1.10,2013-04-28 06:51:00,
2013-04-28 03:06:00,53.7,52.0,30.21,WSW,237,0.0,1.0,95,0.01,,,0.01,weatherlink.com 1.10,2013-04-28 07:06:00,
2013-04-28 03:21:00,53.7,52.0,30.21,WSW,237,0.0,1.0,95,0.01,,,0.01,weatherlink.com 1.10,2013-04-28 07:21:00,
2013-04-28 03:36:00,53.6,52.0,30.20,WSW,237,0.0,1.0,95,0.01,,,0.01,weatherlink.com 1.10,2013-04-28 07:36:00,
2013-04-28 03:51:00,53.7,52.0,30.20,WSW,237,0.0,0.0,95,0.00,,,0.01,weatherlink.com 1.10,2013-04-28 07:51:00,
2013-04-28 04:06:00,53.6,52.0,30.20,WSW,237,0.0,0.0,95,0.00,,,0.01,weatherlink.com 1.10,2013-04-28 08:06:00,
2013-04-28 04:21:00,53.5,52.0,30.20,WSW,237,0.0,0.0,95,0.00,,,0.01,weatherlink.com 1.10,2013-04-28 08:21:00,
2013-04-28 04:36:00,53.5,52.0,30.20,WSW,237,0.0,1.0,95,0.00,,,0.01,weatherlink.com 1.10,2013-04-28 08:36:00,
2013-04-28 04:51:00,53.5,52.0,30.20,WSW,237,0.0,1.0,95,0.00,,,0.01,weatherlink.com 1.10,2013-04-28 08:51:00,
2013-04-28 05:06:00,53.5,52.0,30.21,WSW,237,0.0,0.0,95,0.00,,,0.01,weatherlink.com 1.10,2013-04-28 09:06:00,
2013-04-28 05:21:00,53.5,52.0,30.21,WSW,237,0.0,1.0,96,0.00,,,0.01,weatherlink.com 1.10,2013-04-28 09:21:00,
2013-04-28 05:36:00,53.5,52.0,30.20,NNE,22,0.0,2.0,96,0.00,,,0.01,weatherlink.com 1.10,2013-04-28 09:36:00,
2013-04-28 05:51:00,53.4,52.0,30.21,NNE,22,0.0,0.0,96,0.00,,,0.01,weatherlink.com 1.10,2013-04-28 09:51:00,
2013-04-28 06:06:00,53.4,52.0,30.21,NNE,22,0.0,1.0,96,0.00,,,0.01,weatherlink.com 1.10,2013-04-28 10:06:00,
2013-04-28 06:21:00,53.4,52.0,30.21,NNE,22,0.0,0.0,96,0.00,,,0.01,weatherlink.com 1.10,2013-04-28 10:21:00,
2013-04-28 06:36:00,53.3,52.0,30.20,South,188,0.0,3.0,96,0.00,,,0.01,weatherlink.com 1.10,2013-04-28 10:36:00,
2013-04-28 06:51:00,53.3,52.0,30.21,South,188,0.0,1.0,96,0.00,,,0.01,weatherlink.com 1.10,2013-04-28 10:51:00,
2013-04-28 07:06:00,53.2,52.0,30.22,South,188,0.0,1.0,96,0.00,,,0.01,weatherlink.com 1.10,2013-04-28 11:06:00,
2013-04-28 07:21:00,53.0,52.0,30.22,South,188,0.0,0.0,96,0.00,,,0.01,weatherlink.com 1.10,2013-04-28 11:21:00,
2013-04-28 07:36:00,53.2,52.0,30.21,South,188,0.0,2.0,96,0.00,,,0.01,weatherlink.com 1.10,2013-04-28 11:36:00,
2013-04-28 07:51:00,53.4,52.0,30.21,South,188,0.0,0.0,96,0.00,,,0.01,weatherlink.com 1.10,2013-04-28 11:51:00,
2013-04-28 08:06:00,53.9,53.0,30.22,South,188,0.0,0.0,97,0.00,,,0.01,weatherlink.com 1.10,2013-04-28 12:06:00,
2013-04-28 08:21:00,53.9,53.0,30.22,South,188,0.0,1.0,96,0.01,,,0.02,weatherlink.com 1.10,2013-04-28 12:21:00,
2013-04-28 08:36:00,53.9,53.0,30.21,South,188,1.0,2.0,96,0.01,,,0.02,weatherlink.com 1.10,2013-04-28 12:36:00,
2013-04-28 08:51:00,53.8,53.0,30.22,SSW,200,0.0,3.0,96,0.01,,,0.02,weatherlink.com 1.10,2013-04-28 12:51:00,
2013-04-28 09:06:00,54.1,53.0,30.22,SE,146,1.0,2.0,96,0.01,,,0.02,weatherlink.com 1.10,2013-04-28 13:06:00,
2013-04-28 09:21:00,54.2,53.0,30.22,East,87,0.0,2.0,96,0.00,,,0.02,weatherlink.com 1.10,2013-04-28 13:21:00,
2013-04-28 09:36:00,54.3,53.0,30.23,East,100,0.0,1.0,96,0.00,,,0.02,weatherlink.com 1.10,2013-04-28 13:36:00,
2013-04-28 09:51:00,54.4,53.0,30.22,ESE,103,1.0,3.0,95,0.00,,,0.02,weatherlink.com 1.10,2013-04-28 13:51:00,
2013-04-28 10:06:00,54.5,53.0,30.22,SSE,166,0.0,2.0,94,0.00,,,0.02,weatherlink.com 1.10,2013-04-28 14:06:00,
2013-04-28 10:21:00,54.7,53.0,30.22,ESE,111,0.0,2.0,93,0.00,,,0.02,weatherlink.com 1.10,2013-04-28 14:21:00,
2013-04-28 10:36:00,55.0,53.0,30.22,ESE,116,0.0,2.0,94,0.00,,,0.02,weatherlink.com 1.10,2013-04-28 14:36:00,
2013-04-28 10:51:00,55.0,53.0,30.23,SE,126,0.0,1.0,92,0.00,,,0.02,weatherlink.com 1.10,2013-04-28 14:51:00,
2013-04-28 11:06:00,55.3,53.0,30.23,SE,126,0.0,0.0,93,0.00,,,0.02,weatherlink.com 1.10,2013-04-28 15:06:00,
2013-04-28 11:22:00,55.1,53.0,30.23,SE,126,0.0,0.0,91,0.00,,,0.02,weatherlink.com 1.10,2013-04-28 15:22:00,
2013-04-28 11:36:00,55.0,53.0,30.22,SE,126,0.0,0.0,91,0.00,,,0.02,weatherlink.com 1.10,2013-04-28 15:36:00,
2013-04-28 11:51:00,55.1,53.0,30.22,SE,126,0.0,1.0,93,0.00,,,0.02,weatherlink.com 1.10,2013-04-28 15:51:00,
2013-04-28 12:06:00,55.1,54.0,30.21,SE,126,0.0,1.0,94,0.00,,,0.02,weatherlink.com 1.10,2013-04-28 16:06:00,
2013-04-28 12:21:00,55.2,53.0,30.21,East,94,1.0,2.0,92,0.00,,,0.02,weatherlink.com 1.10,2013-04-28 16:21:00,
2013-04-28 12:36:00,55.3,53.0,30.21,NE,36,0.0,1.0,93,0.00,,,0.02,weatherlink.com 1.10,2013-04-28 16:36:00,
2013-04-28 12:51:00,54.9,53.0,30.21,NE,36,0.0,2.0,92,0.00,,,0.02,weatherlink.com 1.10,2013-04-28 16:51:00,
2013-04-28 13:07:00,54.9,53.0,30.21,NE,36,0.0,0.0,94,0.00,,,0.02,weatherlink.com 1.10,2013-04-28 17:07:00,
2013-04-28 13:22:00,54.7,53.0,30.21,NE,36,0.0,1.0,94,0.01,,,0.03,weatherlink.com 1.10,2013-04-28 17:22:00,
2013-04-28 13:37:00,54.5,53.0,30.21,NE,36,0.0,0.0,94,0.01,,,0.03,weatherlink.com 1.10,2013-04-28 17:37:00,
2013-04-28 13:52:00,54.6,53.0,30.21,NE,36,0.0,0.0,95,0.01,,,0.03,weatherlink.com 1.10,2013-04-28 17:52:00,
2013-04-28 14:07:00,54.7,53.0,30.21,NE,36,0.0,0.0,95,0.00,,,0.03,weatherlink.com 1.10,2013-04-28 18:07:00,
2013-04-28 14:22:00,54.8,53.0,30.20,NNE,23,1.0,3.0,95,0.00,,,0.03,weatherlink.com 1.10,2013-04-28 18:22:00,
2013-04-28 14:37:00,54.9,54.0,30.19,NE,49,0.0,2.0,96,0.00,,,0.03,weatherlink.com 1.10,2013-04-28 18:37:00,
2013-04-28 14:52:00,54.7,53.0,30.18,SE,129,0.0,3.0,95,0.00,,,0.03,weatherlink.com 1.10,2013-04-28 18:52:00,
2013-04-28 15:07:00,54.6,53.0,30.18,NNE,26,0.0,2.0,95,0.00,,,0.03,weatherlink.com 1.10,2013-04-28 19:07:00,
2013-04-28 15:22:00,54.4,53.0,30.18,ENE,62,1.0,4.0,95,0.00,,,0.03,weatherlink.com 1.10,2013-04-28 19:22:00,
2013-04-28 15:37:00,54.3,53.0,30.17,South,173,0.0,3.0,95,0.00,,,0.03,weatherlink.com 1.10,2013-04-28 19:37:00,
2013-04-28 15:52:00,54.1,53.0,30.17,ESE,113,2.0,4.0,95,0.00,,,0.03,weatherlink.com 1.10,2013-04-28 19:52:00,
2013-04-28 16:07:00,53.5,52.0,30.16,North,355,2.0,5.0,95,0.00,,,0.03,weatherlink.com 1.10,2013-04-28 20:07:00,
2013-04-28 16:22:00,53.1,52.0,30.16,SE,132,2.0,5.0,95,0.00,,,0.03,weatherlink.com 1.10,2013-04-28 20:22:00,
2013-04-28 16:37:00,52.7,51.0,30.15,West,263,0.0,4.0,95,0.00,,,0.03,weatherlink.com 1.10,2013-04-28 20:37:00,
2013-04-28 16:52:00,52.5,51.0,30.15,NW,317,0.0,4.0,95,0.01,,,0.04,weatherlink.com 1.10,2013-04-28 20:52:00,
2013-04-28 17:07:00,52.4,51.0,30.14,NNE,28,0.0,3.0,95,0.01,,,0.04,weatherlink.com 1.10,2013-04-28 21:07:00,
2013-04-28 17:22:00,52.3,51.0,30.14,NW,320,0.0,4.0,96,0.01,,,0.04,weatherlink.com 1.10,2013-04-28 21:22:00,
2013-04-28 17:37:00,52.2,51.0,30.14,SW,217,1.0,3.0,96,0.01,,,0.04,weatherlink.com 1.10,2013-04-28 21:37:00,
2013-04-28 17:52:00,52.2,51.0,30.14,WNW,284,0.0,4.0,96,0.00,,,0.04,weatherlink.com 1.10,2013-04-28 21:52:00,
2013-04-28 18:07:00,52.1,51.0,30.13,SSE,159,1.0,3.0,96,0.00,,,0.04,weatherlink.com 1.10,2013-04-28 22:07:00,
2013-04-28 18:22:00,51.9,51.0,30.12,SSE,154,0.0,3.0,96,0.00,,,0.04,weatherlink.com 1.10,2013-04-28 22:22:00,
2013-04-28 18:37:00,51.7,51.0,30.11,SW,221,3.0,5.0,96,0.00,,,0.04,weatherlink.com 1.10,2013-04-28 22:37:00,
2013-04-28 18:52:00,51.6,51.0,30.11,SE,140,1.0,8.0,96,0.00,,,0.04,weatherlink.com 1.10,2013-04-28 22:52:00,
2013-04-28 19:07:00,51.7,51.0,30.10,SW,215,2.0,3.0,96,0.00,,,0.04,weatherlink.com 1.10,2013-04-28 23:07:00,
2013-04-28 19:22:00,51.8,51.0,30.08,WSW,242,2.0,8.0,96,0.00,,,0.04,weatherlink.com 1.10,2013-04-28 23:22:00,
2013-04-28 19:37:00,51.8,51.0,30.08,SW,221,2.0,7.0,96,0.00,,,0.04,weatherlink.com 1.10,2013-04-28 23:37:00,
2013-04-28 19:52:00,51.9,51.0,30.09,South,172,1.0,7.0,97,0.00,,,0.04,weatherlink.com 1.10,2013-04-28 23:52:00,
2013-04-28 20:07:00,51.9,51.0,30.09,West,279,2.0,7.0,97,0.00,,,0.04,weatherlink.com 1.10,2013-04-29 00:07:00,
2013-04-28 20:22:00,51.9,51.0,30.10,NNE,20,1.0,5.0,97,0.00,,,0.04,weatherlink.com 1.10,2013-04-29 00:22:00,
2013-04-28 20:37:00,51.9,51.0,30.10,North,351,0.0,1.0,96,0.00,,,0.04,weatherlink.com 1.10,2013-04-29 00:37:00,
2013-04-28 20:52:00,51.9,51.0,30.09,NNW,347,0.0,2.0,96,0.01,,,0.05,weatherlink.com 1.10,2013-04-29 00:52:00,
2013-04-28 21:07:00,51.9,51.0,30.09,NNE,28,2.0,3.0,96,0.01,,,0.05,weatherlink.com 1.10,2013-04-29 01:07:00,
2013-04-28 21:22:00,51.9,51.0,30.09,West,262,0.0,3.0,97,0.01,,,0.05,weatherlink.com 1.10,2013-04-29 01:22:00,
2013-04-28 21:37:00,52.1,51.0,30.08,SW,235,0.0,3.0,97,0.00,,,0.05,weatherlink.com 1.10,2013-04-29 01:37:00,
2013-04-28 21:52:00,52.2,51.0,30.08,SE,132,2.0,4.0,97,0.00,,,0.05,weatherlink.com 1.10,2013-04-29 01:52:00,
2013-04-28 22:07:00,52.3,52.0,30.07,SSE,167,1.0,3.0,97,0.00,,,0.05,weatherlink.com 1.10,2013-04-29 02:07:00,
2013-04-28 22:22:00,52.4,52.0,30.07,WSW,246,0.0,2.0,97,0.00,,,0.05,weatherlink.com 1.10,2013-04-29 02:22:00,
2013-04-28 22:37:00,52.6,52.0,30.06,WNW,286,2.0,2.0,97,0.00,,,0.05,weatherlink.com 1.10,2013-04-29 02:37:00,
2013-04-28 22:52:00,52.7,52.0,30.08,NW,307,0.0,2.0,97,0.00,,,0.05,weatherlink.com 1.10,2013-04-29 02:52:00,
2013-04-28 23:07:00,52.8,52.0,30.06,NW,307,0.0,2.0,97,0.00,,,0.05,weatherlink.com 1.10,2013-04-29 03:07:00,
2013-04-28 23:22:00,53.1,52.0,30.06,North,360,3.0,4.0,97,0.00,,,0.05,weatherlink.com 1.10,2013-04-29 03:22:00,
2013-04-28 23:37:00,53.3,53.0,30.07,North,360,0.0,3.0,97,0.00,,,0.05,weatherlink.com 1.10,2013-04-29 03:37:00,
2013-04-28 23:52:00,53.5,53.0,30.06,ESE,122,0.0,2.0,97,0.00,,,0.05,weatherlink.com 1.10,2013-04-29 03:52:00,